Regional Weather Roundup
Issued by NWS

Home | Current Version | Previous Version | Text Only | Print | Product List | Glossary On
Versions: 1 2 3 4 5 6 7 8 9 10 11 12 13 14 15 16 17 18 19 20 21 22 23 24 25 26 27 28 29 30 31 32 33 34 35 36 37 38 39 40 41 42 43 44 45 46 47 48 49 50
000
ASUS45 KPSR 290710
RWRAZ

ARIZONA HOURLY REGIONAL WEATHER ROUNDUP
NATIONAL WEATHER SERVICE PHOENIX AZ
1200 AM MST WED JUL 29 2015

NOTE: FAIR INDICATES FEW OR NO CLOUDS BELOW 12,000 FEET WITH NO
SIGNIFICANT WEATHER AND/OR OBSTRUCTIONS TO VISIBILITY.

AZZ001>003-036-290800-
NORTHWEST ARIZONA

CITY           SKY/WX    TMP DP  RH WIND       PRES   REMARKS
BULLHEAD CITY  CLEAR     91  43  18 CALM      29.82R
KINGMAN        CLEAR     72  37  28 CALM      30.05R
$$

AZZ004>008-015-016-018-290800-
NORTH CENTRAL ARIZONA

CITY           SKY/WX    TMP DP  RH WIND       PRES   REMARKS
GRAND CANYON   PTCLDY    52  24  33 NE5       30.29R
WILLIAMS       PTCLDY    64  27  24 CALM      30.37S
PRESCOTT       CLOUDY    77  41  27 SE3       30.18R
FLAGSTAFF      MOCLDY    62  37  39 SW6       30.34R
PAYSON         CLOUDY    73  52  46 CALM      30.23S
PAGE           PTCLDY    83  24  11 W5        30.08R
$$

AZZ009>014-017-290800-
NORTHEAST ARIZONA

CITY           SKY/WX    TMP DP  RH WIND       PRES   REMARKS
WINSLOW        MOCLDY    79  50  36 SW18      30.15R
SAINT JOHNS    CLOUDY    72  50  45 S3        30.21S
WINDOW ROCK    CLOUDY    67  47  48 CALM      30.31R
SHOW LOW       CLOUDY    64  48  55 S10       30.29R
$$

AZZ023-290800-
GREATER PHOENIX AREA

CITY           SKY/WX    TMP DP  RH WIND       PRES   REMARKS
PHOENIX        CLOUDY    90  63  40 SE9G21    29.90R
LUKE AFB       CLOUDY    93  64  38 S9        29.88R
DEER VALLEY    CLOUDY    88  60  38 SE13G21   29.92R
SCOTTSDALE     CLOUDY    88  59  37 SE10      29.95S
MESA-GATEWAY   MOCLDY    84  61  45 SE12      29.97S
$$

AZZ027-028-290800-
SOUTHWEST MARICOPA COUNTY AND PINAL COUNTY

CITY           SKY/WX    TMP DP  RH WIND       PRES   REMARKS
CASA GRANDE    CLOUDY    88  59  37 SW8       29.93S
GILA BEND      FAIR      88  66  48 S10       29.86F HAZE
$$

AZZ503-504-507>509-290800-
SOUTHEAST ARIZONA

CITY           SKY/WX    TMP DP  RH WIND       PRES   REMARKS
TUCSON         CLOUDY    75  63  66 E9        30.07R
DAVIS-MONTHAN  CLOUDY    74  68  81 SE6       30.06S
NOGALES        CLOUDY    68  66  93 CALM      30.15F
SIERRA VISTA   CLOUDY    71  61  69 S3        30.20S
DOUGLAS          N/A    N/A N/A N/A MISG      30.15S
SAFFORD        CLOUDY    83  58  42 NW15      30.03R
$$

AZZ020-021-025-026-031-290800-
SOUTHWEST ARIZONA

CITY           SKY/WX    TMP DP  RH WIND       PRES   REMARKS
YUMA           MOCLDY    91  67  44 S13       29.82R
$$

CAZ031-033-041-043-047-048-061-290800-
SOUTHERN CALIFORNIA

CITY           SKY/WX    TMP DP  RH WIND       PRES   REMARKS
DOWNTOWN L.A.  CLOUDY    68  63  84 CALM      29.93R
L.A. AIRPORT   MOCLDY    67  64  90 W8        29.93R
SAN DIEGO      MOCLDY    70  62  76 CALM      29.94R
BURBANK        CLEAR     69  62  78 SE7       29.93R
ONTARIO        CLEAR     69  62  78 W5        29.93R
RIVERSIDE      CLEAR     72  63  73 W5        29.94R
PALM SPRINGS   CLEAR     90  58  33 NW6       29.84R
EL CENTRO NAS  CLEAR     92  58  31 S8        29.78S
IMPERIAL       CLEAR     95  58  28 S9        29.76S
BLYTHE         MOCLDY    98  63  31 S14       29.80R HX 100
NEEDLES        PTCLDY    98  41  14 W12       29.82R
$$

NVZ020-UTZ003-290800-
SOUTHERN NEVADA-UTAH

CITY           SKY/WX    TMP DP  RH WIND       PRES   REMARKS
LAS VEGAS      CLEAR     90  31  12 W3        29.89R
SALT LAKE CITY CLEAR     60  31  33 S7        30.24S
$$

NMZ009-TXZ055-290800-
NEW MEXICO-WEST TEXAS

CITY           SKY/WX    TMP DP  RH WIND       PRES   REMARKS
ALBUQUERQUE    CLOUDY    74  54  49 E10       30.23R
EL PASO        TSTM      71  64  78 N8        30.15S
$$


........................KEY........................
SKY/WX - SKY CONDITION/WEATHER
TMP    - TEMPERATURE IN FAHRENHEIT
DP     - DEW POINT IN FAHRENHEIT
RH     - RELATIVE HUMIDITY IN PERCENT
WIND   - DIRECTION AND SPEED IN MILES PER HOUR (MPH)
VRB    - VARIABLE WIND DIRECTION
PRES   - MEAN SEA LEVEL PRESSURE IN INCHES OF MERCURY
         F - FALLING PRESSURE   R - RISING PRESSURE
         S - STEADY PRESSURE
VSB    - VISIBILITY IN MILES
HX     - HEAT INDEX IN FAHRENHEIT
WCI    - WIND CHILL INDEX IN FAHRENHEIT
TC     - TEMPERATURE IN CELSIUS WHICH IS ALSO KNOWN AS
         TEMPERATURE IN CENTIGRADE
AFB    - AIR FORCE BASE
         LUKE AFB IS LUKE AIR FORCE BASE
         DAVIS-MONTHAN IS DAVIS-MONTHAN AIR FORCE BASE
NAS    - NAVAL AIR STATION
         EL CENTRO NAS IS EL CENTRO NAVAL AIR STATION
N/A    - NOT AVAILABLE



USA.gov is the U.S. government's official web portal to all federal, state and local government web resources and services.